Content
SEND FEEDBACK

Daily
Averages
Monthly
Summary
United States of America

CORSICANA, TEXAS


Home > North America > United States > Texas
Elevation: 1697 feet     Latitude: 32 01N     Longitude: 096 24W

WEATHER
 
SELECT A DAY
Number of Records: 175,234;   Date Range: 5/20/97 - 9/13/14
 
SHARE

PRINT THIS DATA

[ ← Previous Day ]
WEATHER ALMANAC - JANUARY 31, 2013
[ Next Day → ]
[ °C ]   °F
Weather ElementAverageHighLow
Temperature49.8 °F66.9 °F (2:53 pm)33.1 °F (3:53 am)
Dewpoint23.9 °F28 °F (11:53 pm)19 °F (2:53 pm)
Humidity41.3 %72 % (3:53 am)16 % (2:53 pm)
Barometer30.21 in30.27 in (11:53 pm)30.15 in (4:53 pm)
Wind Speed10.4 mph17.3 mph (1:53 pm)
Wind Gust25.3 mph (2:53 pm)
Weather ElementAverage
Visibility10 mi
Wind DirectionSSW (207.8 °)

Weather ElementTotal
Precipitation---
Heating Degree Days15 (Base 65)
Averaged from 23 records on January 31, 2013
WEATHER CONDITIONS BREAKOUT
WIND DIRECTION BREAKOUT
WEATHER BY HOUR - JANUARY 31, 2013
[ °C ]   °F
Local TimeTemperatureDewpointHumidityBarometerVisibilityWind DirectionWind SpeedGust SpeedPrecipitationEventsConditions
1:53 AM34.0 °F24.1 °F67 %30.19 in10.0 miSW (220°)6.9 mphClear
2:53 AM34.0 °F24.1 °F67 %30.19 in10.0 miSSW (200°)5.8 mphClear
3:53 AM33.1 °F25.0 °F72 %30.19 in10.0 miSouth (190°)5.8 mphClear
4:53 AM34.0 °F24.1 °F67 %30.18 in10.0 miSW (220°)9.2 mphClear
5:53 AM34.0 °F24.1 °F67 %30.18 in10.0 miSSW (200°)9.2 mphClear
6:53 AM33.1 °F24.1 °F70 %30.19 in10.0 miSouth (190°)8.1 mphClear
7:53 AM35.1 °F25.0 °F67 %30.23 in10.0 miSSW (210°)8.1 mphClear
8:53 AM46.0 °F24.1 °F42 %30.24 in10.0 miSSW (210°)16.1 mphClear
9:53 AM53.1 °F21.9 °F30 %30.25 in10.0 miSW (220°)15.0 mphClear
10:53 AM55.9 °F23.0 °F28 %30.25 in10.0 miSW (230°)16.1 mphClear
11:53 AM61.0 °F21.0 °F21 %30.23 in10.0 miSW (230°)15.0 mphClear
12:53 PM64.0 °F23.0 °F21 %30.21 in10.0 miSW (220°)13.8 mphClear
1:53 PM66.0 °F19.9 °F17 %30.18 in10.0 miSW (220°)17.3 mph24.2 mphClear
2:53 PM66.9 °F19.0 °F16 %30.16 in10.0 miSW (220°)11.5 mph25.3 mphClear
3:53 PM66.9 °F19.9 °F17 %30.16 in10.0 miSSW (200°)16.1 mph21.9 mphClear
4:53 PM64.9 °F23.0 °F20 %30.15 in10.0 miSouth (190°)16.1 mph21.9 mphClear
5:53 PM57.0 °F26.1 °F30 %30.17 in10.0 miSSE (160°)6.9 mphClear
6:53 PM54.0 °F26.1 °F34 %30.19 in10.0 miSouth (170°)6.9 mphClear
7:53 PM52.0 °F27.0 °F38 %30.22 in10.0 miSouth (170°)8.1 mphClear
8:53 PM51.1 °F27.0 °F39 %30.23 in10.0 miSouth (180°)8.1 mphClear
9:53 PM51.1 °F26.1 °F38 %30.24 in10.0 miSouth (180°)9.2 mphClear
10:53 PM51.1 °F25.0 °F36 %30.25 in10.0 miSSW (200°)5.8 mphClear
11:53 PM48.0 °F28.0 °F46 %30.27 in10.0 miNorth (350°)4.6 mphClear
Hourly data recorded from KCRS, located miles away from Corsicana, Texas







STORIES FROM OUR PARTNERS